QPF
0.02 0.04 0.05 0.06 0.06 0.05 0.04 0.04 0.05 0.05 0.03 0.02 0.02 0.03 0.02 0.02 0.02 0.01 0.01 0.03 0.05 0.05 0.06 0.05 0.06 0.13 0.15 0.19 0.12 0.08 0.06 0.06 0.05 0.05 0.04 0.03 0.03 0.03 0.04 0.05 0.04 0.03 0.02
0.01 0.04 0.06 0.08 0.07 0.05 0.05 0.05 0.04 0.05 0.05 0.03 0.03 0.03 0.04 0.03 0.02 0.03 0.03 0.03 0.05 0.05 0.06 0.06 0.06 0.09 0.14 0.20 0.22 0.16 0.11 0.07 0.05 0.04 0.04 0.03 0.03 0.03 0.03 0.04 0.04 0.03 0.03
0.01 0.04 0.07 0.07 0.08 0.06 0.05 0.05 0.04 0.05 0.05 0.04 0.03 0.02 0.03 0.04 0.03 0.03 0.04 0.05 0.07 0.08 0.09 0.07 0.07 0.08 0.11 0.12 0.17 0.18 0.18 0.11 0.10 0.06 0.04 0.03 0.03 0.03 0.03 0.03 0.03 0.03 0.02
0.01 0.03 0.07 0.06 0.08 0.08 0.07 0.06 0.05 0.05 0.05 0.04 0.03 0.02 0.02 0.03 0.04 0.04 0.04 0.05 0.06 0.08 0.09 0.06 0.06 0.07 0.07 0.08 0.09 0.11 0.13 0.12 0.11 0.10 0.06 0.03 0.02 0.02 0.02 0.03 0.03 0.02 0.02
0.02 0.03 0.07 0.06 0.07 0.08 0.07 0.07 0.07 0.05 0.04 0.03 0.03 0.02 0.02 0.03 0.05 0.06 0.04 0.06 0.07 0.06 0.05 0.05 0.04 0.06 0.06 0.06 0.05 0.06 0.07 0.07 0.06 0.07 0.06 0.04 0.02 0.02 0.02 0.03 0.03 0.02 0.02
0.04 0.04 0.05 0.06 0.07 0.08 0.07 0.07 0.08 0.07 0.04 0.02 0.02 0.02 0.02 0.02 0.04 0.06 0.07 0.06 0.06 0.04 0.04 0.04 0.03 0.04 0.05 0.05 0.05 0.05 0.05 0.05 0.05 0.05 0.04 0.04 0.03 0.02 0.02 0.02 0.03 0.02 0.02
0.04 0.05 0.05 0.06 0.07 0.07 0.07 0.06 0.05 0.06 0.05 0.03 0.03 0.03 0.03 0.03 0.03 0.04 0.05 0.06 0.06 0.05 0.04 0.04 0.03 0.03 0.03 0.04 0.04 0.04 0.04 0.04 0.04 0.03 0.03 0.03 0.03 0.03 0.03 0.02 0.03 0.03 0.03
0.05 0.05 0.06 0.06 0.07 0.06 0.07 0.05 0.03 0.03 0.04 0.04 0.03 0.03 0.03 0.04 0.03 0.04 0.05 0.06 0.07 0.07 0.07 0.06 0.05 0.04 0.03 0.02 0.02 0.01 0.02 0.02 0.02 0.02 0.02 0.02 0.02 0.03 0.03 0.03 0.04 0.04 0.04
0.05 0.05 0.06 0.07 0.07 0.07 0.08 0.06 0.03 0.02 0.02 0.03 0.03 0.03 0.03 0.03 0.03 0.03 0.04 0.05 0.06 0.07 0.08 0.08 0.06 0.05 0.04 0.02 0.01 0.01 0.01 0.01 0.02 0.02 0.02 0.02 0.02 0.02 0.03 0.03 0.03 0.03 0.04
0.04 0.04 0.05 0.05 0.06 0.06 0.07 0.07 0.05 0.03 0.03 0.03 0.03 0.02 0.02 0.02 0.03 0.03 0.04 0.04 0.04 0.05 0.06 0.06 0.05 0.05 0.04 0.03 0.02 0.01 0.01 0.01 0.01 0.02 0.02 0.03 0.02 0.02 0.02 0.03 0.03 0.03 0.03
0.04 0.05 0.06 0.04 0.04 0.05 0.06 0.05 0.04 0.03 0.03 0.03 0.03 0.03 0.03 0.03 0.03 0.03 0.04 0.04 0.05 0.06 0.07 0.07 0.06 0.05 0.04 0.02 0.02 0.01 0.01 0.01 0.01 0.02 0.02 0.03 0.03 0.03 0.02 0.03 0.04 0.04 0.03
0.05 0.06 0.08 0.06 0.05 0.06 0.05 0.04 0.03 0.03 0.03 0.03 0.03 0.03 0.03 0.03 0.03 0.03 0.04 0.04 0.06 0.07 0.08 0.09 0.09 0.08 0.06 0.04 0.03 0.02 0.01 0.01 0.01 0.02 0.02 0.02 0.03 0.03 0.03 0.02 0.03 0.04 0.04
0.05 0.07 0.09 0.08 0.07 0.05 0.04 0.04 0.03 0.02 0.02 0.02 0.02 0.03 0.03 0.02 0.02 0.03 0.04 0.04 0.05 0.07 0.09 0.09 0.08 0.08 0.07 0.06 0.04 0.03 0.02 0.02 0.02 0.02 0.03 0.03 0.03 0.03 0.03 0.02 0.02 0.02 0.03
0.05 0.06 0.08 0.08 0.08 0.06 0.04 0.04 0.04 0.02 0.02 0.02 0.02 0.02 0.02 0.02 0.02 0.02 0.02 0.03 0.04 0.04 0.06 0.07 0.07 0.07 0.06 0.06 0.05 0.05 0.04 0.03 0.02 0.03 0.03 0.03 0.03 0.04 0.04 0.03 0.02 0.02 0.02
0.04 0.06 0.07 0.08 0.08 0.06 0.05 0.04 0.04 0.03 0.02 0.02 0.02 0.02 0.01 0.02 0.02 0.02 0.02 0.02 0.03 0.04 0.04 0.04 0.04 0.05 0.05 0.04 0.04 0.04 0.03 0.03 0.03 0.02 0.02 0.03 0.03 0.03 0.03 0.04 0.03 0.02 0.01
0.05 0.05 0.06 0.07 0.08 0.07 0.07 0.07 0.06 0.05 0.04 0.02 0.02 0.02 0.01 0.01 0.01 0.02 0.02 0.02 0.02 0.03 0.03 0.02 0.02 0.02 0.03 0.03 0.03 0.03 0.03 0.03 0.03 0.02 0.02 0.02 0.02 0.03 0.03 0.03 0.03 0.03 0.02
0.06 0.06 0.05 0.05 0.06 0.06 0.06 0.07 0.07 0.06 0.05 0.03 0.02 0.01 0.01 0.01 0.01 0.01 0.02 0.02 0.02 0.03 0.03 0.03 0.02 0.02 0.03 0.03 0.03 0.03 0.04 0.03 0.03 0.02 0.02 0.02 0.02 0.02 0.02 0.03 0.03 0.03 0.02
0.06 0.06 0.06 0.04 0.04 0.04 0.04 0.04 0.05 0.06 0.06 0.05 0.03 0.01 0.01 0.01 0.01 0.01 0.01 0.02 0.02 0.02 0.03 0.03 0.03 0.03 0.03 0.03 0.03 0.03 0.04 0.03 0.02 0.02 0.02 0.02 0.02 0.02 0.02 0.02 0.02 0.03 0.02
0.07 0.06 0.07 0.05 0.04 0.03 0.03 0.03 0.03 0.04 0.05 0.04 0.04 0.02 0.01 0.01 0.01 0.01 0.01 0.01 0.02 0.02 0.02 0.02 0.02 0.02 0.03 0.03 0.03 0.03 0.03 0.03 0.03 0.02 0.02 0.02 0.02 0.02 0.02 0.02 0.02 0.03 0.03
0.06 0.06 0.06 0.06 0.05 0.03 0.03 0.03 0.03 0.04 0.04 0.04 0.03 0.03 0.02 0.01 0.01 0.01 0.01 0.01 0.01 0.02 0.02 0.02 0.02 0.02 0.02 0.02 0.03 0.03 0.03 0.03 0.03 0.02 0.02 0.02 0.02 0.02 0.02 0.02 0.02 0.02 0.03
0.08 0.06 0.05 0.05 0.05 0.05 0.05 0.04 0.04 0.04 0.05 0.05 0.04 0.04 0.03 0.02 0.02 0.01 0.01 0.01 0.01 0.02 0.02 0.02 0.02 0.02 0.01 0.01 0.02 0.02 0.02 0.02 0.02 0.02 0.02 0.02 0.02 0.02 0.02 0.02 0.03 0.03 0.04
0.08 0.07 0.06 0.05 0.05 0.05 0.06 0.07 0.06 0.04 0.05 0.05 0.05 0.04 0.03 0.03 0.02 0.02 0.02 0.01 0.01 0.01 0.02 0.02 0.02 0.02 0.01 0.01 0.01 0.01 0.02 0.02 0.02 0.02 0.02 0.02 0.02 0.02 0.02 0.02 0.02 0.03 0.04
0.07 0.08 0.07 0.07 0.05 0.05 0.06 0.06 0.07 0.06 0.06 0.06 0.05 0.04 0.03 0.02 0.02 0.02 0.02 0.01 0.01 0.01 0.01 0.02 0.02 0.01 0.01 0.01 0.01 0.01 0.01 0.02 0.01 0.01 0.02 0.02 0.02 0.03 0.02 0.02 0.02 0.03 0.04
0.05 0.06 0.06 0.07 0.06 0.06 0.06 0.05 0.05 0.06 0.06 0.06 0.06 0.05 0.05 0.04 0.02 0.02 0.02 0.02 0.01 0.01 0.01 0.01 0.01 0.01 0.01 0.01 0.01 0.02 0.02 0.02 0.02 0.02 0.02 0.03 0.02 0.02 0.02 0.02 0.02 0.03 0.03
0.04 0.04 0.04 0.05 0.05 0.05 0.06 0.05 0.05 0.05 0.05 0.05 0.05 0.05 0.05 0.05 0.05 0.04 0.03 0.02 0.02 0.01 0.01 0.01 0.01 0.01 0.01 0.02 0.02 0.02 0.03 0.03 0.03 0.02 0.02 0.02 0.02 0.02 0.02 0.02 0.02 0.02 0.03
0.03 0.03 0.03 0.04 0.04 0.04 0.05 0.04 0.05 0.05 0.05 0.04 0.04 0.04 0.04 0.05 0.06 0.06 0.05 0.04 0.03 0.02 0.01 0.01 0.01 0.01 0.01 0.02 0.02 0.02 0.03 0.03 0.03 0.03 0.02 0.02 0.02 0.02 0.03 0.02 0.02 0.02 0.02
MSLP
1018.21 1018.69 1019.13 1019.54 1019.96 1020.38 1020.81 1021.23 1021.64 1022.03 1022.39 1022.73 1023.05 1023.36 1023.67 1023.96 1024.24 1024.49 1024.72 1024.92 1025.10 1025.28 1025.48 1025.70 1025.96 1026.27 1026.60 1026.94 1027.28 1027.60 1027.89 1028.15 1028.40 1028.64 1028.88 1029.13 1029.38 1029.64 1029.88 1030.09 1030.27 1030.41 1030.52
1018.09 1018.58 1019.06 1019.53 1020.01 1020.51 1021.02 1021.51 1021.98 1022.42 1022.82 1023.19 1023.53 1023.85 1024.15 1024.44 1024.71 1024.96 1025.18 1025.38 1025.56 1025.73 1025.92 1026.13 1026.37 1026.64 1026.95 1027.26 1027.58 1027.89 1028.18 1028.46 1028.73 1029.00 1029.28 1029.55 1029.83 1030.09 1030.33 1030.54 1030.71 1030.84 1030.95
1017.95 1018.46 1018.98 1019.51 1020.07 1020.65 1021.24 1021.81 1022.36 1022.86 1023.31 1023.72 1024.08 1024.40 1024.70 1024.98 1025.23 1025.46 1025.66 1025.84 1026.01 1026.17 1026.33 1026.52 1026.73 1026.98 1027.25 1027.54 1027.83 1028.13 1028.43 1028.72 1029.01 1029.31 1029.61 1029.91 1030.21 1030.48 1030.72 1030.92 1031.08 1031.21 1031.32
1017.83 1018.37 1018.93 1019.52 1020.15 1020.80 1021.46 1022.11 1022.73 1023.30 1023.80 1024.25 1024.64 1024.98 1025.28 1025.54 1025.77 1025.98 1026.15 1026.30 1026.44 1026.58 1026.72 1026.88 1027.07 1027.28 1027.52 1027.78 1028.05 1028.34 1028.63 1028.94 1029.25 1029.57 1029.90 1030.22 1030.53 1030.80 1031.04 1031.24 1031.40 1031.52 1031.62
1017.73 1018.30 1018.90 1019.54 1020.21 1020.92 1021.64 1022.34 1023.02 1023.65 1024.21 1024.70 1025.13 1025.50 1025.82 1026.08 1026.30 1026.48 1026.63 1026.75 1026.86 1026.97 1027.09 1027.22 1027.38 1027.56 1027.77 1028.01 1028.26 1028.53 1028.82 1029.13 1029.45 1029.79 1030.13 1030.47 1030.79 1031.08 1031.32 1031.51 1031.65 1031.77 1031.86
1017.64 1018.24 1018.87 1019.53 1020.23 1020.96 1021.70 1022.44 1023.16 1023.83 1024.45 1025.00 1025.48 1025.89 1026.24 1026.52 1026.75 1026.93 1027.06 1027.17 1027.25 1027.34 1027.43 1027.54 1027.67 1027.83 1028.01 1028.22 1028.45 1028.71 1028.99 1029.30 1029.63 1029.97 1030.33 1030.68 1031.00 1031.29 1031.53 1031.72 1031.86 1031.97 1032.05
1017.50 1018.13 1018.78 1019.45 1020.15 1020.87 1021.61 1022.36 1023.09 1023.79 1024.45 1025.06 1025.60 1026.08 1026.48 1026.81 1027.07 1027.26 1027.40 1027.50 1027.58 1027.65 1027.73 1027.82 1027.93 1028.07 1028.23 1028.42 1028.63 1028.87 1029.14 1029.44 1029.76 1030.11 1030.47 1030.82 1031.15 1031.44 1031.68 1031.87 1032.01 1032.10 1032.17
1017.28 1017.94 1018.60 1019.27 1019.94 1020.64 1021.35 1022.07 1022.80 1023.51 1024.21 1024.86 1025.47 1026.02 1026.49 1026.88 1027.20 1027.43 1027.60 1027.72 1027.81 1027.88 1027.95 1028.03 1028.14 1028.26 1028.41 1028.58 1028.78 1029.00 1029.25 1029.53 1029.85 1030.18 1030.53 1030.88 1031.21 1031.50 1031.75 1031.94 1032.07 1032.16 1032.21
1016.93 1017.63 1018.30 1018.95 1019.61 1020.26 1020.93 1021.62 1022.32 1023.03 1023.75 1024.44 1025.11 1025.72 1026.26 1026.73 1027.11 1027.40 1027.62 1027.77 1027.89 1027.98 1028.06 1028.15 1028.26 1028.38 1028.52 1028.68 1028.86 1029.06 1029.29 1029.55 1029.85 1030.16 1030.50 1030.83 1031.16 1031.45 1031.70 1031.89 1032.03 1032.12 1032.17
1016.45 1017.17 1017.86 1018.52 1019.16 1019.79 1020.42 1021.07 1021.74 1022.43 1023.15 1023.86 1024.56 1025.22 1025.83 1026.36 1026.80 1027.15 1027.42 1027.63 1027.78 1027.91 1028.02 1028.13 1028.25 1028.39 1028.53 1028.69 1028.86 1029.04 1029.25 1029.48 1029.74 1030.03 1030.34 1030.66 1030.97 1031.26 1031.51 1031.71 1031.86 1031.97 1032.03
1015.84 1016.60 1017.32 1018.00 1018.64 1019.26 1019.88 1020.50 1021.14 1021.81 1022.51 1023.21 1023.92 1024.61 1025.24 1025.81 1026.30 1026.70 1027.03 1027.28 1027.49 1027.66 1027.82 1027.97 1028.12 1028.27 1028.43 1028.59 1028.75 1028.93 1029.11 1029.31 1029.54 1029.79 1030.07 1030.36 1030.65 1030.93 1031.18 1031.40 1031.57 1031.70 1031.78
1015.11 1015.92 1016.68 1017.40 1018.08 1018.73 1019.35 1019.97 1020.60 1021.24 1021.90 1022.58 1023.27 1023.93 1024.56 1025.14 1025.65 1026.09 1026.46 1026.76 1027.02 1027.25 1027.46 1027.65 1027.84 1028.03 1028.21 1028.39 1028.55 1028.72 1028.88 1029.06 1029.25 1029.46 1029.70 1029.95 1030.22 1030.49 1030.74 1030.97 1031.17 1031.33 1031.45
1014.31 1015.15 1015.97 1016.76 1017.51 1018.21 1018.87 1019.51 1020.13 1020.76 1021.38 1022.02 1022.65 1023.27 1023.86 1024.42 1024.93 1025.37 1025.77 1026.11 1026.42 1026.70 1026.97 1027.22 1027.45 1027.68 1027.89 1028.09 1028.27 1028.43 1028.59 1028.74 1028.90 1029.07 1029.27 1029.49 1029.73 1029.97 1030.22 1030.46 1030.69 1030.89 1031.06
1013.47 1014.33 1015.21 1016.07 1016.90 1017.68 1018.41 1019.10 1019.74 1020.35 1020.94 1021.52 1022.09 1022.65 1023.18 1023.69 1024.17 1024.61 1025.02 1025.40 1025.75 1026.08 1026.39 1026.69 1026.98 1027.25 1027.50 1027.72 1027.92 1028.09 1028.25 1028.39 1028.53 1028.67 1028.83 1029.01 1029.22 1029.45 1029.69 1029.93 1030.18 1030.42 1030.63
1012.62 1013.48 1014.40 1015.33 1016.24 1017.11 1017.93 1018.67 1019.35 1019.97 1020.53 1021.07 1021.57 1022.06 1022.53 1022.99 1023.43 1023.86 1024.27 1024.67 1025.05 1025.43 1025.79 1026.13 1026.46 1026.77 1027.05 1027.31 1027.53 1027.72 1027.88 1028.02 1028.15 1028.28 1028.42 1028.57 1028.75 1028.95 1029.17 1029.42 1029.68 1029.94 1030.20
1011.83 1012.65 1013.56 1014.53 1015.51 1016.45 1017.34 1018.16 1018.88 1019.52 1020.09 1020.59 1021.05 1021.49 1021.91 1022.32 1022.73 1023.15 1023.56 1023.97 1024.39 1024.79 1025.18 1025.56 1025.92 1026.26 1026.57 1026.85 1027.09 1027.31 1027.49 1027.65 1027.79 1027.91 1028.04 1028.17 1028.32 1028.50 1028.70 1028.93 1029.19 1029.46 1029.74
1011.17 1011.88 1012.74 1013.70 1014.69 1015.68 1016.63 1017.49 1018.26 1018.94 1019.52 1020.02 1020.46 1020.88 1021.27 1021.67 1022.07 1022.48 1022.90 1023.33 1023.76 1024.19 1024.60 1024.99 1025.37 1025.71 1026.04 1026.34 1026.61 1026.85 1027.06 1027.24 1027.40 1027.54 1027.67 1027.80 1027.93 1028.08 1028.26 1028.47 1028.71 1028.97 1029.26
1010.70 1011.26 1012.01 1012.88 1013.84 1014.82 1015.77 1016.67 1017.47 1018.17 1018.78 1019.30 1019.76 1020.18 1020.59 1020.99 1021.41 1021.83 1022.28 1022.72 1023.17 1023.60 1024.01 1024.41 1024.78 1025.13 1025.45 1025.76 1026.04 1026.31 1026.55 1026.77 1026.97 1027.13 1027.28 1027.40 1027.53 1027.65 1027.80 1027.98 1028.19 1028.43 1028.71
1010.50 1010.86 1011.43 1012.17 1013.01 1013.92 1014.83 1015.71 1016.52 1017.24 1017.87 1018.42 1018.92 1019.37 1019.81 1020.25 1020.70 1021.16 1021.62 1022.09 1022.55 1022.98 1023.39 1023.77 1024.13 1024.46 1024.78 1025.08 1025.38 1025.67 1025.94 1026.20 1026.43 1026.63 1026.79 1026.93 1027.05 1027.16 1027.28 1027.41 1027.59 1027.80 1028.05
1010.61 1010.74 1011.09 1011.63 1012.31 1013.09 1013.90 1014.71 1015.48 1016.19 1016.83 1017.41 1017.93 1018.43 1018.92 1019.40 1019.89 1020.39 1020.89 1021.38 1021.85 1022.28 1022.68 1023.05 1023.38 1023.69 1024.00 1024.30 1024.60 1024.91 1025.21 1025.50 1025.77 1026.00 1026.18 1026.33 1026.45 1026.54 1026.63 1026.74 1026.88 1027.05 1027.28
1011.06 1010.95 1011.06 1011.37 1011.83 1012.42 1013.08 1013.77 1014.46 1015.12 1015.73 1016.31 1016.85 1017.38 1017.90 1018.42 1018.95 1019.48 1020.01 1020.51 1020.99 1021.43 1021.82 1022.17 1022.49 1022.80 1023.09 1023.39 1023.71 1024.03 1024.35 1024.67 1024.97 1025.22 1025.43 1025.59 1025.71 1025.79 1025.86 1025.94 1026.05 1026.19 1026.39
1011.81 1011.48 1011.35 1011.42 1011.65 1012.02 1012.48 1013.01 1013.57 1014.13 1014.68 1015.21 1015.74 1016.26 1016.78 1017.32 1017.86 1018.41 1018.94 1019.45 1019.93 1020.37 1020.77 1021.13 1021.45 1021.76 1022.06 1022.37 1022.70 1023.04 1023.39 1023.73 1024.05 1024.33 1024.55 1024.72 1024.84 1024.92 1024.98 1025.04 1025.12 1025.25 1025.44
1012.80 1012.29 1011.96 1011.80 1011.80 1011.94 1012.19 1012.52 1012.91 1013.33 1013.76 1014.21 1014.66 1015.13 1015.61 1016.11 1016.63 1017.15 1017.67 1018.18 1018.66 1019.10 1019.51 1019.88 1020.23 1020.56 1020.90 1021.25 1021.60 1021.98 1022.35 1022.71 1023.05 1023.34 1023.58 1023.76 1023.88 1023.97 1024.02 1024.08 1024.16 1024.29 1024.46
1013.93 1013.31 1012.82 1012.47 1012.27 1012.20 1012.23 1012.36 1012.55 1012.80 1013.07 1013.38 1013.71 1014.07 1014.45 1014.87 1015.31 1015.77 1016.24 1016.70 1017.16 1017.61 1018.03 1018.43 1018.83 1019.22 1019.61 1020.01 1020.42 1020.84 1021.25 1021.64 1022.00 1022.31 1022.56 1022.75 1022.88 1022.97 1023.04 1023.11 1023.21 1023.34 1023.53
1015.11 1014.43 1013.85 1013.38 1013.01 1012.76 1012.60 1012.53 1012.52 1012.57 1012.66 1012.79 1012.96 1013.16 1013.39 1013.67 1013.98 1014.32 1014.70 1015.10 1015.51 1015.94 1016.37 1016.82 1017.27 1017.73 1018.20 1018.68 1019.16 1019.63 1020.09 1020.52 1020.90 1021.23 1021.50 1021.71 1021.86 1021.97 1022.07 1022.16 1022.28 1022.44 1022.65
1016.24 1015.56 1014.95 1014.40 1013.94 1013.55 1013.23 1012.98 1012.79 1012.65 1012.54 1012.48 1012.45 1012.46 1012.51 1012.59 1012.73 1012.92 1013.16 1013.45 1013.79 1014.18 1014.61 1015.08 1015.58 1016.11 1016.66 1017.23 1017.79 1018.34 1018.85 1019.33 1019.75 1020.11 1020.40 1020.64 1020.82 1020.97 1021.09 1021.23 1021.38 1021.56 1021.79
Thickness
5609 5610 5611 5612 5613 5615 5616 5617 5618 5619 5619 5620 5621 5622 5623 5625 5627 5628 5630 5632 5634 5635 5636 5636 5637 5637 5636 5636 5635 5635 5635 5635 5634 5634 5633 5632 5631 5631 5630 5628 5628 5627 5626
5601 5602 5602 5603 5604 5606 5607 5608 5609 5610 5610 5611 5612 5613 5614 5616 5617 5620 5622 5624 5625 5626 5628 5629 5629 5629 5629 5629 5628 5628 5628 5628 5627 5626 5626 5625 5625 5624 5623 5622 5621 5620 5619
5593 5593 5594 5595 5596 5597 5598 5599 5599 5600 5600 5601 5602 5603 5605 5606 5608 5611 5613 5614 5616 5617 5618 5620 5621 5621 5622 5621 5621 5620 5621 5620 5619 5619 5619 5618 5618 5617 5616 5615 5614 5613 5611
5584 5584 5585 5586 5587 5588 5588 5589 5590 5590 5590 5590 5591 5592 5594 5596 5598 5601 5603 5605 5606 5607 5609 5610 5612 5612 5613 5613 5613 5613 5612 5612 5612 5611 5611 5611 5610 5609 5608 5608 5606 5605 5604
5575 5575 5576 5577 5578 5579 5579 5579 5579 5580 5579 5579 5580 5582 5583 5585 5588 5590 5592 5594 5596 5598 5599 5601 5602 5602 5603 5604 5604 5604 5604 5603 5603 5603 5602 5602 5602 5601 5600 5599 5598 5597 5596
5565 5566 5567 5567 5568 5569 5569 5569 5569 5569 5568 5568 5570 5571 5572 5574 5577 5579 5581 5584 5586 5587 5589 5590 5591 5592 5593 5594 5595 5595 5595 5594 5594 5594 5594 5593 5593 5592 5591 5590 5590 5589 5588
5554 5555 5557 5557 5557 5558 5559 5559 5559 5558 5556 5557 5558 5559 5561 5564 5566 5568 5570 5573 5575 5577 5578 5579 5580 5581 5583 5583 5584 5585 5585 5585 5585 5585 5584 5584 5584 5583 5583 5582 5581 5581 5580
5542 5544 5546 5546 5547 5547 5547 5548 5549 5547 5545 5546 5547 5548 5549 5552 5555 5557 5559 5562 5563 5566 5567 5568 5569 5570 5572 5572 5573 5573 5575 5576 5576 5575 5575 5575 5574 5574 5573 5573 5573 5572 5572
5531 5533 5534 5535 5535 5537 5537 5537 5538 5538 5535 5534 5537 5539 5539 5541 5541 5545 5548 5551 5552 5554 5556 5557 5559 5560 5560 5562 5562 5563 5564 5565 5565 5565 5565 5565 5564 5564 5564 5564 5564 5563 5563
5519 5521 5523 5524 5525 5525 5525 5525 5526 5527 5527 5525 5526 5528 5529 5531 5531 5532 5536 5538 5541 5543 5545 5547 5548 5549 5550 5551 5551 5552 5553 5554 5554 5554 5555 5555 5555 5555 5554 5554 5554 5553 5553
5508 5510 5511 5513 5514 5514 5514 5514 5514 5515 5516 5517 5517 5517 5518 5518 5520 5521 5524 5526 5528 5532 5534 5535 5537 5539 5539 5540 5540 5541 5542 5542 5542 5543 5544 5544 5544 5544 5544 5544 5544 5543 5543
5496 5498 5499 5501 5502 5502 5502 5503 5503 5503 5505 5506 5507 5508 5509 5510 5510 5511 5512 5514 5515 5519 5522 5524 5526 5528 5528 5529 5529 5529 5530 5531 5531 5532 5532 5533 5533 5533 5533 5533 5533 5533 5532
5485 5486 5488 5489 5490 5491 5491 5491 5492 5492 5493 5495 5496 5497 5499 5501 5502 5502 5502 5502 5503 5505 5509 5512 5515 5516 5517 5517 5517 5518 5518 5519 5519 5520 5520 5521 5521 5521 5521 5522 5522 5522 5522
5474 5475 5476 5477 5478 5479 5480 5480 5480 5481 5482 5483 5484 5486 5487 5488 5491 5492 5493 5492 5491 5493 5496 5500 5502 5504 5504 5505 5506 5506 5506 5507 5507 5507 5508 5508 5508 5509 5509 5510 5510 5510 5510
5462 5463 5463 5465 5466 5467 5467 5468 5469 5470 5470 5472 5473 5475 5475 5477 5479 5481 5482 5484 5483 5483 5487 5489 5490 5491 5492 5493 5494 5494 5494 5495 5495 5495 5496 5496 5496 5497 5497 5497 5497 5498 5498
5451 5450 5451 5453 5454 5454 5455 5456 5457 5458 5458 5460 5461 5463 5464 5466 5467 5468 5470 5472 5473 5474 5475 5478 5478 5479 5479 5480 5481 5482 5483 5483 5484 5484 5484 5484 5485 5485 5485 5485 5485 5485 5486
5439 5439 5439 5441 5442 5442 5443 5444 5445 5446 5447 5448 5450 5452 5454 5456 5456 5457 5459 5460 5461 5462 5463 5465 5465 5466 5467 5468 5469 5470 5471 5472 5472 5472 5472 5473 5473 5473 5473 5473 5474 5474 5474
5426 5427 5427 5428 5430 5431 5432 5433 5434 5434 5436 5437 5439 5441 5443 5444 5446 5447 5448 5449 5450 5452 5452 5453 5453 5454 5455 5456 5457 5458 5459 5460 5460 5460 5460 5461 5461 5461 5462 5462 5462 5463 5463
5414 5414 5415 5416 5418 5419 5421 5422 5423 5424 5426 5428 5429 5431 5432 5433 5435 5436 5436 5438 5438 5440 5441 5442 5443 5442 5443 5443 5444 5446 5446 5447 5447 5448 5449 5449 5450 5449 5450 5450 5451 5451 5452
5402 5403 5404 5405 5406 5407 5409 5410 5412 5413 5416 5418 5419 5420 5422 5423 5425 5426 5426 5427 5427 5427 5428 5430 5430 5430 5430 5431 5432 5433 5434 5434 5435 5436 5437 5437 5437 5438 5438 5439 5440 5440 5440
5391 5391 5392 5393 5393 5395 5397 5399 5400 5402 5405 5406 5408 5409 5411 5413 5415 5415 5416 5416 5416 5416 5416 5417 5418 5418 5419 5419 5421 5421 5421 5421 5422 5422 5423 5424 5425 5426 5426 5427 5428 5428 5429
5378 5379 5380 5381 5382 5384 5386 5387 5389 5391 5393 5395 5397 5398 5400 5401 5403 5404 5405 5406 5406 5406 5406 5406 5407 5409 5410 5410 5409 5409 5408 5407 5410 5410 5409 5411 5412 5413 5414 5415 5416 5417 5417
5367 5368 5369 5370 5372 5373 5374 5375 5377 5379 5381 5384 5386 5387 5388 5390 5391 5392 5393 5394 5395 5395 5397 5398 5398 5399 5399 5400 5398 5396 5396 5396 5398 5397 5395 5398 5398 5400 5401 5403 5403 5404 5404
5355 5357 5358 5359 5361 5362 5362 5364 5365 5367 5369 5372 5374 5376 5377 5379 5379 5379 5380 5381 5383 5384 5385 5387 5389 5390 5388 5387 5386 5386 5385 5383 5382 5382 5382 5383 5385 5386 5388 5389 5390 5390 5390
5343 5344 5346 5347 5349 5351 5352 5353 5354 5356 5359 5362 5364 5365 5366 5368 5369 5368 5370 5371 5372 5373 5373 5374 5376 5377 5377 5376 5374 5372 5370 5369 5370 5370 5368 5369 5372 5371 5374 5376 5376 5376 5376
5332 5333 5334 5335 5337 5339 5341 5343 5343 5345 5349 5352 5353 5355 5356 5357 5358 5358 5359 5360 5361 5362 5362 5362 5363 5364 5364 5363 5363 5362 5361 5359 5357 5357 5358 5356 5357 5355 5358 5362 5362 5362 5362